When you browse on this site, cookies collect data to enhance your experience and personalize the content and advertising you see.
Visit our Privacy Policy to learn more. By continuing to use the site, you agree to this use of cookies and data.
  • Em Portugal
  • Lista de países
  • Para 7 dias
  • Temperatura da água
  • Mapas de satélite
  • Mapa do tempo
  • Widgets de tempo
  • user-avatar
    Iniciar Sessão

    Previsão horária em Escaldes-Engordany

    Hoje, 24 Março, Domingo

    Tempo Temperatura Precipitação Vento Pressão Humidade
    00:00 +5°C° 0 mm 1 m/s 641 mmHg 68%
    01:00 +5°C° 0 mm 1 m/s 641 mmHg 67%
    02:00 +5°C° 0 mm 1 m/s 641 mmHg 66%
    03:00 +5°C° 0 mm 1 m/s 641 mmHg 65%
    04:00 +5°C° 0 mm 1 m/s 641 mmHg 64%
    05:00 +5°C° 0 mm 1 m/s 641 mmHg 62%
    06:00 +4°C° 0 mm 1 m/s 641 mmHg 61%
    07:00 +7°C° 0 mm 1 m/s 642 mmHg 53%
    08:00 +10°C° 0 mm 1 m/s 643 mmHg 45%
    09:00 +12°C° 0 mm 0 m/s 644 mmHg 36%
    10:00 +14°C° 0 mm 1 m/s 644 mmHg 35%
    11:00 +15°C° 0 mm 1 m/s 644 mmHg 33%
    12:00 +16°C° 0 mm 1 m/s 645 mmHg 31%
    13:00 +15°C° 0.1 mm 1 m/s 644 mmHg 34%
    14:00 +15°C° 0.1 mm 1 m/s 644 mmHg 38%
    15:00 +14°C° 0.1 mm 1 m/s 643 mmHg 41%
    16:00 +12°C° 0.6 mm 1 m/s 642 mmHg 52%
    17:00 +11°C° 0.6 mm 1 m/s 642 mmHg 63%
    18:00 +9°C° 0.6 mm 1 m/s 641 mmHg 74%
    19:00 +8°C° 0.1 mm 1 m/s 641 mmHg 79%
    20:00 +7°C° 0.1 mm 1 m/s 641 mmHg 83%
    21:00 +6°C° 0.1 mm 1 m/s 641 mmHg 88%
    22:00 +5°C° 0 mm 1 m/s 641 mmHg 89%
    23:00 +5°C° 0 mm 1 m/s 640 mmHg 91%

    Amanhã, 25 Março, Segunda-feira

    Tempo Temperatura Precipitação Vento Pressão Humidade
    00:00 +3°C° 0 mm 2 m/s 640 mmHg 92%
    01:00 +3°C° 0 mm 2 m/s 640 mmHg 89%
    02:00 +3°C° 0 mm 2 m/s 639 mmHg 85%
    03:00 +2°C° 0 mm 2 m/s 639 mmHg 82%
    04:00 +2°C° 0 mm 2 m/s 639 mmHg 79%
    05:00 +2°C° 0 mm 2 m/s 639 mmHg 77%
    06:00 +1°C° 0 mm 2 m/s 639 mmHg 74%
    07:00 +4°C° 0 mm 2 m/s 640 mmHg 67%
    08:00 +6°C° 0 mm 2 m/s 641 mmHg 60%
    09:00 +8°C° 0 mm 2 m/s 642 mmHg 54%
    10:00 +9°C° 0 mm 2 m/s 642 mmHg 51%
    11:00 +10°C° 0 mm 2 m/s 642 mmHg 48%
    12:00 +12°C° 0 mm 2 m/s 642 mmHg 44%
    13:00 +11°C° 0 mm 3 m/s 641 mmHg 45%
    14:00 +11°C° 0 mm 3 m/s 641 mmHg 46%
    15:00 +10°C° 0 mm 3 m/s 640 mmHg 47%
    16:00 +8°C° 0 mm 3 m/s 640 mmHg 54%
    17:00 +5°C° 0 mm 3 m/s 639 mmHg 62%
    18:00 +3°C° 0 mm 3 m/s 638 mmHg 70%
    19:00 +2°C° 0 mm 3 m/s 639 mmHg 74%
    20:00 +1°C° 0 mm 3 m/s 639 mmHg 77%
    21:00 0°C° 0 mm 3 m/s 639 mmHg 80%
    22:00 0°C° 0 mm 3 m/s 639 mmHg 81%
    23:00 -1°C° 0 mm 4 m/s 639 mmHg 82%

    Depois de amanhã, 26 Março, Terça-feira

    Tempo Temperatura Precipitação Vento Pressão Humidade
    00:00 -1°C° 0 mm 4 m/s 640 mmHg 83%
    01:00 -2°C° 0 mm 4 m/s 639 mmHg 82%
    02:00 -1°C° 0 mm 3 m/s 639 mmHg 81%
    03:00 -2°C° 0 mm 3 m/s 639 mmHg 80%
    04:00 -2°C° 0 mm 3 m/s 639 mmHg 74%
    05:00 -4°C° 0 mm 3 m/s 639 mmHg 68%
    06:00 -4°C° 0 mm 3 m/s 639 mmHg 62%
    07:00 -1°C° 0 mm 3 m/s 640 mmHg 49%
    08:00 0°C° 0 mm 4 m/s 641 mmHg 37%
    09:00 +3°C° 0 mm 4 m/s 642 mmHg 24%
    10:00 +5°C° 0 mm 4 m/s 642 mmHg 21%
    11:00 +6°C° 0 mm 4 m/s 642 mmHg 19%
    12:00 +9°C° 0 mm 3 m/s 643 mmHg 16%
    13:00 +9°C° 0 mm 3 m/s 642 mmHg 19%
    14:00 +9°C° 0 mm 3 m/s 642 mmHg 21%
    15:00 +8°C° 0 mm 3 m/s 642 mmHg 24%
    16:00 +5°C° 0 mm 3 m/s 641 mmHg 32%
    17:00 +4°C° 0 mm 2 m/s 641 mmHg 41%
    18:00 +2°C° 0 mm 2 m/s 640 mmHg 49%
    19:00 +1°C° 0 mm 2 m/s 640 mmHg 52%
    20:00 -1°C° 0 mm 2 m/s 641 mmHg 55%
    21:00 -1°C° 0 mm 2 m/s 641 mmHg 58%
    22:00 -2°C° 0 mm 2 m/s 641 mmHg 57%
    23:00 -2°C° 0 mm 2 m/s 641 mmHg 56%

    27 Março, Quarta-feira

    Tempo Temperatura Precipitação Vento Pressão Humidade
    00:00 0°C° 0 mm 1 m/s 641 mmHg 56%
    01:00 0°C° 0 mm 1 m/s 641 mmHg 57%
    02:00 0°C° 0 mm 1 m/s 641 mmHg 57%
    03:00 0°C° 0 mm 1 m/s 641 mmHg 58%
    04:00 0°C° 0 mm 1 m/s 641 mmHg 55%
    05:00 0°C° 0 mm 1 m/s 641 mmHg 53%
    06:00 0°C° 0 mm 1 m/s 641 mmHg 50%
    07:00 +3°C° 0 mm 1 m/s 642 mmHg 41%
    08:00 +6°C° 0 mm 1 m/s 643 mmHg 32%
    09:00 +9°C° 0 mm 1 m/s 644 mmHg 23%
    10:00 +10°C° 0 mm 1 m/s 645 mmHg 23%
    11:00 +11°C° 0 mm 1 m/s 645 mmHg 23%
    12:00 +12°C° 0 mm 2 m/s 645 mmHg 22%
    13:00 +12°C° 0 mm 2 m/s 645 mmHg 25%
    14:00 +12°C° 0 mm 2 m/s 644 mmHg 28%
    15:00 +10°C° 0 mm 2 m/s 644 mmHg 31%
    16:00 +8°C° 0 mm 2 m/s 643 mmHg 41%
    17:00 +6°C° 0 mm 2 m/s 643 mmHg 50%
    18:00 +5°C° 0 mm 1 m/s 642 mmHg 60%
    19:00 +4°C° 0 mm 1 m/s 642 mmHg 63%
    20:00 +3°C° 0 mm 1 m/s 642 mmHg 67%
    21:00 +2°C° 0 mm 1 m/s 642 mmHg 71%
    22:00 +2°C° 0 mm 1 m/s 642 mmHg 66%
    23:00 +1°C° 0 mm 2 m/s 642 mmHg 62%

    28 Março, Quinta-feira

    Tempo Temperatura Precipitação Vento Pressão Humidade
    00:00 +1°C° 0 mm 2 m/s 642 mmHg 58%
    01:00 +1°C° 0 mm 2 m/s 642 mmHg 60%
    02:00 +1°C° 0 mm 2 m/s 642 mmHg 63%
    03:00 +1°C° 0 mm 2 m/s 641 mmHg 66%
    04:00 +1°C° 0 mm 2 m/s 642 mmHg 66%
    05:00 +2°C° 0 mm 1 m/s 642 mmHg 66%
    06:00 +2°C° 0 mm 1 m/s 642 mmHg 66%
    07:00 +4°C° 0 mm 1 m/s 643 mmHg 57%
    08:00 +7°C° 0 mm 1 m/s 644 mmHg 48%
    09:00 +9°C° 0 mm 1 m/s 645 mmHg 38%
    10:00 +10°C° 0 mm 2 m/s 645 mmHg 37%
    11:00 +12°C° 0 mm 2 m/s 645 mmHg 36%
    12:00 +13°C° 0 mm 2 m/s 645 mmHg 34%
    13:00 +13°C° 0 mm 2 m/s 645 mmHg 37%
    14:00 +12°C° 0 mm 2 m/s 644 mmHg 40%
    15:00 +12°C° 0 mm 2 m/s 644 mmHg 42%
    16:00 +10°C° 0 mm 1 m/s 643 mmHg 51%
    17:00 +8°C° 0 mm 1 m/s 643 mmHg 60%
    18:00 +6°C° 0 mm 1 m/s 642 mmHg 68%
    19:00 +6°C° 0 mm 1 m/s 642 mmHg 73%
    20:00 +4°C° 0 mm 0 m/s 643 mmHg 79%
    21:00 +3°C° 0 mm 0 m/s 643 mmHg 84%
    22:00 +2°C° 0 mm 0 m/s 643 mmHg 86%
    23:00 +2°C° 0 mm 0 m/s 642 mmHg 89%

    29 Março, Sexta-feira

    Tempo Temperatura Precipitação Vento Pressão Humidade
    00:00 +1°C° 0 mm 0 m/s 642 mmHg 91%
    01:00 +1°C° 0 mm 0 m/s 642 mmHg 91%
    02:00 +1°C° 0 mm 0 m/s 642 mmHg 91%
    03:00 +1°C° 0 mm 0 m/s 642 mmHg 91%
    04:00 +1°C° 0 mm 0 m/s 642 mmHg 91%
    05:00 +1°C° 0 mm 0 m/s 642 mmHg 91%
    06:00 +1°C° 0 mm 0 m/s 642 mmHg 91%
    07:00 +4°C° 0 mm 1 m/s 643 mmHg 80%
    08:00 +6°C° 0 mm 1 m/s 644 mmHg 69%
    09:00 +8°C° 0 mm 1 m/s 645 mmHg 58%
    10:00 +8°C° 0.1 mm 1 m/s 644 mmHg 58%
    11:00 +8°C° 0.1 mm 1 m/s 644 mmHg 59%
    12:00 +8°C° 0.1 mm 1 m/s 644 mmHg 60%
    13:00 +8°C° 0.1 mm 1 m/s 643 mmHg 62%
    14:00 +8°C° 0.1 mm 1 m/s 643 mmHg 63%
    15:00 +8°C° 0.1 mm 1 m/s 642 mmHg 64%
    16:00 +7°C° 0.1 mm 1 m/s 642 mmHg 67%
    17:00 +7°C° 0.1 mm 1 m/s 642 mmHg 71%
    18:00 +6°C° 0.1 mm 1 m/s 642 mmHg 74%
    19:00 +5°C° 0 mm 1 m/s 642 mmHg 78%
    20:00 +4°C° 0 mm 1 m/s 642 mmHg 83%
    21:00 +4°C° 0 mm 1 m/s 642 mmHg 87%
    22:00 +3°C° 0 mm 1 m/s 642 mmHg 89%
    23:00 +3°C° 0 mm 1 m/s 641 mmHg 91%
    Mostrar mais